When you browse on this site, cookies collect data to enhance your experience and personalize the content and advertising you see.
Visit our Privacy Policy to learn more. By continuing to use the site, you agree to this use of cookies and data.
  • In Hungary
  • List of Countries
  • For 7 days
  • Water Temperature
  • Weather Map
  • News
  • Weather Widgets
  • user-avatar
    Login

    Hourly Weather Cholul

    Today, 18 November, Monday

    Time Temperature Precipitation Wind Pressure Humidity
    00:00 +17°C° 0 mm 0 mps 760 mmHg 77%
    01:00 +17°C° 0 mm 0 mps 759 mmHg 78%
    02:00 +19°C° 0 mm 1 mps 759 mmHg 79%
    03:00 +19°C° 0 mm 1 mps 759 mmHg 80%
    04:00 +19°C° 0 mm 1 mps 759 mmHg 79%
    05:00 +19°C° 0 mm 1 mps 760 mmHg 78%
    06:00 +19°C° 0 mm 1 mps 760 mmHg 78%
    07:00 +21°C° 0 mm 1 mps 760 mmHg 71%
    08:00 +23°C° 0 mm 1 mps 760 mmHg 64%
    09:00 +26°C° 0 mm 1 mps 761 mmHg 56%
    10:00 +26°C° 0 mm 1 mps 760 mmHg 55%
    11:00 +26°C° 0 mm 1 mps 759 mmHg 55%
    12:00 +26°C° 0 mm 2 mps 759 mmHg 54%
    13:00 +26°C° 0 mm 2 mps 758 mmHg 54%
    14:00 +26°C° 0 mm 1 mps 758 mmHg 54%
    15:00 +26°C° 0 mm 1 mps 757 mmHg 55%
    16:00 +25°C° 0 mm 1 mps 758 mmHg 59%
    17:00 +24°C° 0 mm 1 mps 758 mmHg 63%
    18:00 +22°C° 0 mm 1 mps 758 mmHg 67%
    19:00 +22°C° 0 mm 1 mps 759 mmHg 69%
    20:00 +21°C° 0 mm 1 mps 759 mmHg 71%
    21:00 +21°C° 0 mm 1 mps 760 mmHg 72%
    22:00 +18°C° 0 mm 0 mps 760 mmHg 74%
    23:00 +18°C° 0 mm 0 mps 760 mmHg 75%

    Tomorrow, 19 November, Tuesday

    Time Temperature Precipitation Wind Pressure Humidity
    00:00 +17°C° 0 mm 0 mps 760 mmHg 77%
    01:00 +17°C° 0 mm 0 mps 760 mmHg 77%
    02:00 +17°C° 0 mm 0 mps 759 mmHg 78%
    03:00 +17°C° 0 mm 0 mps 759 mmHg 79%
    04:00 +17°C° 0 mm 0 mps 759 mmHg 79%
    05:00 +17°C° 0 mm 0 mps 760 mmHg 79%
    06:00 +17°C° 0 mm 0 mps 760 mmHg 80%
    07:00 +19°C° 0 mm 0 mps 760 mmHg 73%
    08:00 +21°C° 0 mm 0 mps 761 mmHg 67%
    09:00 +23°C° 0 mm 0 mps 761 mmHg 60%
    10:00 +26°C° 0 mm 1 mps 761 mmHg 58%
    11:00 +27°C° 0 mm 1 mps 760 mmHg 55%
    12:00 +27°C° 0 mm 1 mps 760 mmHg 53%
    13:00 +27°C° 0 mm 2 mps 760 mmHg 55%
    14:00 +27°C° 0 mm 2 mps 760 mmHg 57%
    15:00 +26°C° 0 mm 2 mps 759 mmHg 60%
    16:00 +25°C° 0 mm 2 mps 760 mmHg 65%
    17:00 +23°C° 0 mm 1 mps 760 mmHg 70%
    18:00 +22°C° 0 mm 1 mps 760 mmHg 74%
    19:00 +21°C° 0 mm 1 mps 760 mmHg 77%
    20:00 +21°C° 0 mm 1 mps 761 mmHg 80%
    21:00 +20°C° 0 mm 1 mps 761 mmHg 83%
    22:00 +20°C° 0 mm 1 mps 761 mmHg 84%
    23:00 +19°C° 0 mm 1 mps 761 mmHg 86%

    Day after tomorrow, 20 November, Wednesday

    Time Temperature Precipitation Wind Pressure Humidity
    00:00 +19°C° 0 mm 1 mps 761 mmHg 87%
    01:00 +19°C° 0 mm 1 mps 761 mmHg 87%
    02:00 +18°C° 0 mm 1 mps 761 mmHg 88%
    03:00 +18°C° 0 mm 1 mps 761 mmHg 88%
    04:00 +18°C° 0 mm 1 mps 761 mmHg 87%
    05:00 +18°C° 0 mm 1 mps 761 mmHg 86%
    06:00 +18°C° 0 mm 1 mps 761 mmHg 85%
    07:00 +20°C° 0 mm 1 mps 762 mmHg 75%
    08:00 +23°C° 0 mm 1 mps 762 mmHg 65%
    09:00 +26°C° 0 mm 1 mps 763 mmHg 55%
    10:00 +27°C° 0 mm 2 mps 762 mmHg 51%
    11:00 +28°C° 0 mm 2 mps 761 mmHg 46%
    12:00 +30°C° 0 mm 2 mps 761 mmHg 42%
    13:00 +30°C° 0 mm 2 mps 760 mmHg 45%
    14:00 +29°C° 0 mm 2 mps 760 mmHg 47%
    15:00 +29°C° 0 mm 3 mps 759 mmHg 50%
    16:00 +27°C° 0 mm 2 mps 759 mmHg 60%
    17:00 +26°C° 0 mm 2 mps 759 mmHg 71%
    18:00 +24°C° 0 mm 2 mps 760 mmHg 81%
    19:00 +23°C° 0 mm 2 mps 760 mmHg 82%
    20:00 +22°C° 0 mm 3 mps 761 mmHg 84%
    21:00 +21°C° 0 mm 3 mps 761 mmHg 85%
    22:00 +21°C° 0 mm 2 mps 761 mmHg 86%
    23:00 +21°C° 0 mm 2 mps 761 mmHg 87%

    21 November, Thursday

    Time Temperature Precipitation Wind Pressure Humidity
    00:00 +20°C° 0 mm 2 mps 761 mmHg 88%
    01:00 +20°C° 0 mm 2 mps 760 mmHg 90%
    02:00 +19°C° 0 mm 2 mps 760 mmHg 91%
    03:00 +20°C° 0 mm 1 mps 760 mmHg 92%
    04:00 +19°C° 0 mm 1 mps 760 mmHg 91%
    05:00 +19°C° 0 mm 1 mps 760 mmHg 91%
    06:00 +19°C° 0 mm 1 mps 761 mmHg 90%
    07:00 +21°C° 0 mm 2 mps 761 mmHg 82%
    08:00 +24°C° 0 mm 2 mps 761 mmHg 73%
    09:00 +26°C° 0 mm 3 mps 761 mmHg 65%
    10:00 +28°C° 0 mm 2 mps 761 mmHg 61%
    11:00 +30°C° 0 mm 2 mps 760 mmHg 57%
    12:00 +31°C° 0 mm 2 mps 760 mmHg 53%
    13:00 +31°C° 0 mm 2 mps 759 mmHg 54%
    14:00 +31°C° 0 mm 2 mps 758 mmHg 56%
    15:00 +31°C° 0 mm 2 mps 758 mmHg 58%
    16:00 +29°C° 0.2 mm 2 mps 758 mmHg 69%
    17:00 +27°C° 0.2 mm 2 mps 758 mmHg 79%
    18:00 +25°C° 0.2 mm 2 mps 759 mmHg 90%
    19:00 +25°C° 0.1 mm 2 mps 759 mmHg 92%
    20:00 +24°C° 0.1 mm 2 mps 759 mmHg 94%
    21:00 +24°C° 0.1 mm 3 mps 760 mmHg 96%
    22:00 +24°C° 0 mm 2 mps 760 mmHg 96%
    23:00 +23°C° 0 mm 2 mps 760 mmHg 96%

    22 November, Friday

    Time Temperature Precipitation Wind Pressure Humidity
    00:00 +23°C° 0 mm 2 mps 759 mmHg 97%
    01:00 +23°C° 0 mm 2 mps 759 mmHg 97%
    02:00 +23°C° 0 mm 2 mps 759 mmHg 98%
    03:00 +21°C° 0 mm 2 mps 758 mmHg 98%
    04:00 +21°C° 0 mm 2 mps 759 mmHg 98%
    05:00 +21°C° 0 mm 2 mps 759 mmHg 98%
    06:00 +21°C° 0 mm 2 mps 759 mmHg 98%
    07:00 +24°C° 0 mm 2 mps 760 mmHg 91%
    08:00 +26°C° 0 mm 2 mps 760 mmHg 85%
    09:00 +27°C° 0 mm 3 mps 760 mmHg 79%
    10:00 +29°C° 0 mm 2 mps 760 mmHg 71%
    11:00 +31°C° 0 mm 2 mps 759 mmHg 63%
    12:00 +32°C° 0 mm 2 mps 758 mmHg 55%
    13:00 +32°C° 0.1 mm 2 mps 758 mmHg 59%
    14:00 +31°C° 0.1 mm 2 mps 757 mmHg 62%
    15:00 +31°C° 0.1 mm 2 mps 756 mmHg 66%
    16:00 +30°C° 0 mm 2 mps 757 mmHg 71%
    17:00 +28°C° 0 mm 2 mps 757 mmHg 77%
    18:00 +27°C° 0 mm 2 mps 758 mmHg 83%
    19:00 +26°C° 0 mm 2 mps 758 mmHg 85%
    20:00 +25°C° 0 mm 2 mps 758 mmHg 88%
    21:00 +25°C° 0 mm 2 mps 759 mmHg 90%
    22:00 +24°C° 0 mm 1 mps 759 mmHg 92%
    23:00 +24°C° 0 mm 1 mps 759 mmHg 94%

    23 November, Saturday

    Time Temperature Precipitation Wind Pressure Humidity
    00:00 +24°C° 0 mm 1 mps 759 mmHg 96%
    01:00 +23°C° 0 mm 1 mps 759 mmHg 96%
    02:00 +23°C° 0 mm 1 mps 758 mmHg 95%
    03:00 +23°C° 0 mm 1 mps 758 mmHg 95%
    04:00 +23°C° 0 mm 1 mps 758 mmHg 94%
    05:00 +23°C° 0 mm 1 mps 759 mmHg 92%
    06:00 +23°C° 0 mm 1 mps 759 mmHg 91%
    07:00 +25°C° 0 mm 1 mps 759 mmHg 84%
    08:00 +26°C° 0 mm 1 mps 760 mmHg 77%
    09:00 +28°C° 0 mm 1 mps 760 mmHg 70%
    10:00 +30°C° 0 mm 1 mps 760 mmHg 62%
    11:00 +31°C° 0 mm 1 mps 759 mmHg 55%
    12:00 +33°C° 0 mm 1 mps 759 mmHg 48%
    13:00 +34°C° 0 mm 2 mps 758 mmHg 49%
    14:00 +34°C° 0 mm 2 mps 758 mmHg 50%
    15:00 +32°C° 0 mm 2 mps 757 mmHg 51%
    16:00 +30°C° 0 mm 2 mps 758 mmHg 59%
    17:00 +28°C° 0 mm 2 mps 758 mmHg 66%
    18:00 +26°C° 0 mm 1 mps 759 mmHg 74%
    19:00 +25°C° 0 mm 1 mps 759 mmHg 77%
    20:00 +25°C° 0 mm 1 mps 760 mmHg 80%
    21:00 +24°C° 0 mm 1 mps 760 mmHg 83%
    22:00 +24°C° 0 mm 1 mps 760 mmHg 85%
    23:00 +24°C° 0 mm 1 mps 760 mmHg 88%
    Show more